GEFSMW_prec_meanprecacc_024.txt.gz
Total_Precipitation_Accumulation
0.87 0.91 0.88 0.70 0.66 0.61 0.55 0.50 0.49 0.50 0.55 0.67 0.78 0.80 0.74 0.64 0.49 0.37 0.29 0.25 0.20 0.23 0.34 0.27 0.32 0.28 0.33 0.34 0.27 0.43 0.49 0.38 0.27 0.19 0.12 0.05 0.03 0.05 0.10 0.14 0.16 0.11 0.06
0.69 0.72 0.66 0.59 0.60 0.75 0.82 0.74 0.65 0.61 0.61 0.82 1.09 1.24 1.26 1.06 0.73 0.50 0.36 0.28 0.24 0.27 0.31 0.35 0.30 0.33 0.41 0.46 0.49 0.55 0.46 0.35 0.31 0.30 0.27 0.14 0.11 0.11 0.18 0.30 0.31 0.21 0.11
0.37 0.41 0.42 0.45 0.50 0.60 0.62 0.55 0.50 0.50 0.51 0.59 0.76 0.94 1.14 1.16 0.87 0.56 0.41 0.33 0.25 0.22 0.27 0.34 0.36 0.43 0.48 0.60 0.71 0.61 0.51 0.42 0.41 0.40 0.42 0.33 0.24 0.14 0.08 0.10 0.17 0.20 0.16
0.33 0.39 0.41 0.40 0.41 0.43 0.43 0.44 0.47 0.51 0.56 0.61 0.66 0.83 1.03 1.00 0.81 0.61 0.43 0.32 0.23 0.19 0.25 0.33 0.38 0.46 0.53 0.66 0.64 0.61 0.66 0.62 0.58 0.57 0.53 0.46 0.38 0.30 0.12 0.05 0.09 0.13 0.16
0.32 0.36 0.41 0.43 0.42 0.45 0.50 0.53 0.58 0.63 0.67 0.69 0.68 0.72 1.01 0.98 0.73 0.57 0.44 0.33 0.26 0.25 0.28 0.36 0.42 0.46 0.52 0.61 0.62 0.74 0.72 0.73 0.70 0.63 0.58 0.58 0.52 0.43 0.30 0.15 0.07 0.06 0.07
0.36 0.42 0.48 0.49 0.46 0.48 0.54 0.55 0.55 0.56 0.58 0.57 0.57 0.54 0.65 0.68 0.59 0.53 0.46 0.37 0.31 0.32 0.37 0.39 0.43 0.45 0.52 0.61 0.63 0.62 0.60 0.62 0.64 0.58 0.52 0.55 0.52 0.47 0.45 0.32 0.20 0.12 0.06
0.37 0.40 0.45 0.48 0.50 0.50 0.51 0.49 0.47 0.45 0.39 0.34 0.31 0.30 0.34 0.43 0.46 0.42 0.40 0.38 0.32 0.29 0.31 0.36 0.41 0.43 0.48 0.58 0.57 0.52 0.50 0.53 0.54 0.50 0.50 0.50 0.48 0.48 0.53 0.58 0.48 0.36 0.18
0.31 0.30 0.33 0.37 0.41 0.44 0.46 0.45 0.43 0.41 0.39 0.34 0.30 0.23 0.23 0.32 0.40 0.44 0.43 0.41 0.34 0.26 0.24 0.28 0.34 0.39 0.42 0.49 0.57 0.58 0.57 0.54 0.52 0.51 0.58 0.56 0.49 0.47 0.53 0.65 0.73 0.69 0.45
0.31 0.28 0.27 0.29 0.30 0.31 0.32 0.35 0.38 0.42 0.41 0.39 0.32 0.24 0.25 0.35 0.40 0.43 0.46 0.50 0.47 0.42 0.36 0.35 0.38 0.41 0.46 0.54 0.62 0.69 0.67 0.65 0.63 0.65 0.66 0.56 0.47 0.44 0.52 0.70 0.80 0.84 0.69
0.31 0.26 0.22 0.19 0.19 0.22 0.27 0.37 0.48 0.49 0.40 0.32 0.25 0.19 0.23 0.38 0.39 0.34 0.35 0.42 0.47 0.48 0.43 0.41 0.42 0.43 0.46 0.50 0.54 0.63 0.67 0.69 0.73 0.72 0.68 0.65 0.62 0.61 0.64 0.73 0.81 0.83 0.78
0.30 0.26 0.20 0.16 0.16 0.18 0.22 0.30 0.35 0.39 0.33 0.23 0.17 0.12 0.10 0.16 0.21 0.22 0.21 0.24 0.30 0.34 0.32 0.30 0.27 0.25 0.25 0.27 0.30 0.35 0.40 0.44 0.46 0.46 0.50 0.61 0.71 0.70 0.72 0.74 0.72 0.77 0.79
0.21 0.18 0.17 0.17 0.17 0.19 0.20 0.20 0.19 0.17 0.16 0.14 0.11 0.07 0.04 0.02 0.02 0.04 0.06 0.07 0.10 0.12 0.10 0.09 0.08 0.07 0.07 0.08 0.10 0.13 0.16 0.21 0.24 0.29 0.36 0.44 0.50 0.54 0.59 0.62 0.63 0.67 0.75
0.22 0.20 0.19 0.18 0.18 0.19 0.18 0.17 0.16 0.13 0.11 0.10 0.09 0.07 0.04 0.02 0.01 0.00 0.00 0.00 0.01 0.01 0.01 0.01 0.02 0.02 0.01 0.01 0.01 0.03 0.05 0.08 0.12 0.16 0.19 0.19 0.24 0.30 0.34 0.40 0.47 0.52 0.72
0.18 0.18 0.19 0.19 0.18 0.16 0.13 0.11 0.10 0.10 0.09 0.09 0.10 0.10 0.07 0.04 0.01 0.00 0.00 0.00 0.00 0.00 0.00 0.00 0.00 0.00 0.00 0.00 0.01 0.03 0.05 0.06 0.08 0.09 0.08 0.08 0.11 0.17 0.23 0.31 0.34 0.38 0.46
0.18 0.19 0.21 0.21 0.18 0.14 0.11 0.07 0.06 0.08 0.08 0.08 0.09 0.10 0.08 0.06 0.02 0.01 0.00 0.00 0.00 0.00 0.00 0.00 0.00 0.00 0.00 0.00 0.01 0.04 0.06 0.09 0.11 0.10 0.06 0.06 0.07 0.09 0.10 0.16 0.23 0.28 0.40
0.19 0.16 0.16 0.14 0.13 0.10 0.07 0.06 0.06 0.06 0.07 0.07 0.07 0.08 0.10 0.08 0.04 0.01 0.01 0.01 0.00 0.00 0.00 0.00 0.00 0.00 0.00 0.00 0.00 0.01 0.04 0.05 0.06 0.06 0.05 0.03 0.05 0.09 0.12 0.14 0.15 0.15 0.23
0.11 0.09 0.10 0.09 0.07 0.05 0.05 0.07 0.07 0.07 0.08 0.07 0.06 0.07 0.10 0.11 0.07 0.03 0.02 0.01 0.01 0.01 0.01 0.01 0.00 0.00 0.00 0.00 0.00 0.00 0.01 0.01 0.01 0.02 0.02 0.01 0.03 0.06 0.09 0.10 0.08 0.08 0.09
0.03 0.03 0.02 0.03 0.03 0.03 0.05 0.09 0.12 0.14 0.15 0.12 0.08 0.07 0.08 0.08 0.06 0.04 0.03 0.04 0.04 0.05 0.05 0.04 0.01 0.00 0.00 0.00 0.00 0.00 0.00 0.00 0.00 0.00 0.00 0.00 0.00 0.01 0.01 0.06 0.07 0.02 0.01
0.01 0.01 0.01 0.02 0.02 0.05 0.10 0.15 0.21 0.24 0.22 0.17 0.11 0.08 0.09 0.11 0.11 0.06 0.03 0.03 0.04 0.05 0.06 0.06 0.04 0.01 0.00 0.00 0.00 0.00 0.00 0.00 0.00 0.00 0.00 0.00 0.00 0.00 0.00 0.03 0.03 0.02 0.00
0.01 0.01 0.02 0.04 0.06 0.10 0.13 0.19 0.24 0.27 0.25 0.18 0.11 0.08 0.08 0.08 0.09 0.07 0.05 0.04 0.03 0.03 0.03 0.05 0.05 0.02 0.00 0.00 0.00 0.00 0.00 0.01 0.00 0.00 0.00 0.00 0.00 0.00 0.00 0.00 0.01 0.01 0.00
0.01 0.01 0.04 0.06 0.08 0.08 0.11 0.17 0.23 0.24 0.18 0.11 0.06 0.07 0.07 0.08 0.08 0.09 0.11 0.10 0.09 0.07 0.05 0.05 0.05 0.04 0.01 0.00 0.00 0.00 0.00 0.00 0.00 0.00 0.00 0.00 0.00 0.00 0.00 0.00 0.00 0.00 0.00
0.00 0.02 0.07 0.10 0.08 0.07 0.09 0.12 0.14 0.14 0.12 0.07 0.04 0.04 0.07 0.08 0.11 0.20 0.23 0.23 0.19 0.11 0.09 0.07 0.07 0.06 0.05 0.01 0.00 0.00 0.00 0.00 0.00 0.00 0.00 0.00 0.00 0.00 0.00 0.00 0.00 0.00 0.00
0.01 0.03 0.06 0.08 0.11 0.13 0.12 0.11 0.08 0.06 0.07 0.08 0.09 0.06 0.06 0.08 0.10 0.14 0.18 0.18 0.13 0.08 0.07 0.08 0.08 0.08 0.08 0.04 0.00 0.00 0.00 0.00 0.01 0.00 0.00 0.00 0.00 0.00 0.00 0.00 0.00 0.00 0.00
0.02 0.04 0.08 0.12 0.16 0.19 0.15 0.09 0.06 0.04 0.06 0.11 0.16 0.16 0.13 0.11 0.07 0.07 0.08 0.09 0.07 0.05 0.06 0.06 0.06 0.06 0.06 0.04 0.02 0.01 0.00 0.00 0.00 0.00 0.00 0.00 0.00 0.00 0.00 0.00 0.00 0.00 0.00
0.01 0.04 0.09 0.13 0.13 0.15 0.15 0.10 0.06 0.06 0.08 0.09 0.10 0.12 0.14 0.18 0.16 0.12 0.11 0.11 0.10 0.09 0.11 0.11 0.10 0.08 0.06 0.03 0.02 0.01 0.01 0.01 0.00 0.00 0.01 0.01 0.01 0.01 0.00 0.00 0.00 0.00 0.00
0.00 0.01 0.05 0.07 0.08 0.09 0.09 0.07 0.08 0.09 0.12 0.12 0.13 0.14 0.15 0.15 0.16 0.14 0.11 0.11 0.11 0.11 0.12 0.12 0.11 0.10 0.07 0.04 0.03 0.01 0.01 0.01 0.01 0.00 0.01 0.01 0.01 0.00 0.00 0.00 0.00 0.00 0.00

GEFSMW_prec_meanprecacc_030.txt.gz
Total_Precipitation_Accumulation
0.87 0.91 0.89 0.72 0.69 0.65 0.60 0.56 0.55 0.56 0.61 0.76 0.87 0.90 0.85 0.78 0.65 0.55 0.50 0.47 0.43 0.47 0.58 0.50 0.53 0.46 0.48 0.49 0.41 0.54 0.56 0.45 0.34 0.24 0.15 0.05 0.03 0.05 0.10 0.15 0.16 0.11 0.07
0.70 0.73 0.69 0.63 0.65 0.81 0.88 0.81 0.72 0.68 0.71 0.95 1.28 1.49 1.53 1.34 1.03 0.82 0.72 0.60 0.53 0.54 0.57 0.59 0.50 0.48 0.52 0.55 0.55 0.61 0.51 0.39 0.36 0.35 0.31 0.15 0.11 0.11 0.18 0.30 0.31 0.21 0.11
0.38 0.45 0.48 0.53 0.59 0.68 0.68 0.61 0.56 0.58 0.61 0.74 1.01 1.26 1.51 1.55 1.28 0.99 0.87 0.75 0.63 0.53 0.53 0.56 0.51 0.53 0.55 0.65 0.74 0.63 0.53 0.44 0.43 0.44 0.49 0.37 0.26 0.15 0.08 0.11 0.17 0.21 0.18
0.35 0.42 0.46 0.47 0.47 0.49 0.48 0.49 0.53 0.60 0.69 0.81 0.96 1.22 1.49 1.51 1.38 1.21 1.01 0.82 0.66 0.52 0.49 0.51 0.52 0.55 0.59 0.69 0.66 0.62 0.68 0.64 0.59 0.60 0.59 0.55 0.48 0.39 0.16 0.07 0.12 0.18 0.20
0.33 0.38 0.43 0.46 0.46 0.49 0.55 0.59 0.66 0.75 0.84 0.92 0.97 1.11 1.45 1.45 1.22 1.02 0.86 0.76 0.68 0.61 0.56 0.54 0.53 0.52 0.56 0.63 0.63 0.75 0.73 0.75 0.73 0.67 0.63 0.65 0.62 0.56 0.42 0.21 0.15 0.15 0.14
0.36 0.42 0.48 0.50 0.48 0.51 0.57 0.60 0.63 0.67 0.73 0.77 0.82 0.84 0.99 1.04 0.94 0.86 0.78 0.68 0.62 0.60 0.58 0.53 0.51 0.50 0.55 0.63 0.64 0.63 0.61 0.64 0.67 0.62 0.57 0.62 0.61 0.59 0.61 0.47 0.35 0.28 0.20
0.37 0.40 0.45 0.48 0.51 0.52 0.53 0.52 0.52 0.53 0.52 0.50 0.48 0.48 0.56 0.68 0.72 0.69 0.66 0.63 0.56 0.50 0.49 0.48 0.48 0.47 0.51 0.59 0.58 0.53 0.52 0.54 0.56 0.53 0.53 0.56 0.57 0.60 0.69 0.76 0.66 0.53 0.33
0.31 0.30 0.33 0.37 0.41 0.44 0.47 0.47 0.46 0.46 0.46 0.45 0.44 0.40 0.40 0.51 0.61 0.63 0.61 0.57 0.48 0.37 0.32 0.33 0.38 0.41 0.44 0.49 0.58 0.59 0.58 0.55 0.53 0.52 0.60 0.59 0.54 0.53 0.62 0.78 0.87 0.83 0.61
0.31 0.28 0.28 0.29 0.30 0.31 0.33 0.36 0.41 0.46 0.49 0.51 0.49 0.42 0.43 0.52 0.56 0.58 0.59 0.61 0.56 0.48 0.40 0.38 0.40 0.42 0.47 0.54 0.63 0.69 0.67 0.66 0.65 0.67 0.68 0.59 0.51 0.48 0.58 0.78 0.90 0.95 0.80
0.31 0.26 0.22 0.20 0.19 0.22 0.28 0.39 0.51 0.55 0.49 0.43 0.40 0.36 0.42 0.56 0.56 0.48 0.45 0.49 0.52 0.51 0.46 0.42 0.42 0.44 0.47 0.50 0.54 0.64 0.68 0.70 0.75 0.75 0.72 0.70 0.66 0.66 0.69 0.79 0.89 0.94 0.90
0.30 0.26 0.20 0.17 0.17 0.20 0.25 0.35 0.43 0.49 0.45 0.38 0.32 0.28 0.29 0.33 0.35 0.33 0.29 0.29 0.34 0.36 0.34 0.31 0.27 0.26 0.26 0.27 0.31 0.35 0.41 0.45 0.48 0.48 0.53 0.64 0.74 0.75 0.77 0.78 0.78 0.85 0.89
0.21 0.19 0.18 0.18 0.19 0.22 0.26 0.30 0.33 0.34 0.36 0.33 0.30 0.28 0.24 0.19 0.14 0.12 0.11 0.11 0.13 0.14 0.12 0.10 0.08 0.07 0.07 0.08 0.11 0.13 0.17 0.22 0.25 0.31 0.38 0.45 0.51 0.56 0.62 0.65 0.66 0.72 0.82
0.22 0.21 0.20 0.20 0.21 0.26 0.30 0.32 0.37 0.36 0.37 0.34 0.31 0.30 0.25 0.19 0.12 0.09 0.06 0.04 0.03 0.02 0.02 0.02 0.02 0.02 0.02 0.02 0.02 0.03 0.05 0.09 0.13 0.17 0.20 0.20 0.24 0.30 0.35 0.41 0.48 0.55 0.76
0.18 0.19 0.21 0.22 0.23 0.26 0.27 0.27 0.31 0.36 0.40 0.42 0.46 0.43 0.34 0.27 0.18 0.12 0.09 0.05 0.02 0.01 0.01 0.01 0.01 0.01 0.01 0.01 0.02 0.03 0.05 0.07 0.09 0.09 0.08 0.08 0.11 0.17 0.24 0.32 0.35 0.39 0.49
0.19 0.19 0.22 0.24 0.24 0.24 0.25 0.25 0.27 0.30 0.32 0.36 0.43 0.43 0.35 0.28 0.20 0.12 0.08 0.05 0.02 0.01 0.00 0.00 0.00 0.00 0.00 0.00 0.01 0.04 0.07 0.10 0.11 0.10 0.06 0.06 0.08 0.09 0.10 0.16 0.23 0.29 0.42
0.19 0.17 0.17 0.17 0.19 0.20 0.18 0.19 0.20 0.20 0.20 0.22 0.25 0.29 0.29 0.26 0.18 0.10 0.05 0.03 0.01 0.00 0.00 0.00 0.00 0.00 0.00 0.00 0.00 0.02 0.04 0.05 0.06 0.06 0.05 0.03 0.05 0.09 0.12 0.14 0.15 0.15 0.23
0.11 0.10 0.11 0.11 0.10 0.08 0.10 0.13 0.14 0.14 0.17 0.18 0.18 0.21 0.25 0.24 0.16 0.08 0.05 0.03 0.02 0.02 0.02 0.01 0.00 0.00 0.00 0.00 0.00 0.00 0.01 0.01 0.01 0.02 0.02 0.01 0.03 0.07 0.09 0.10 0.08 0.08 0.09
0.03 0.03 0.03 0.04 0.03 0.04 0.07 0.11 0.15 0.19 0.21 0.19 0.18 0.18 0.18 0.18 0.15 0.10 0.07 0.06 0.06 0.05 0.05 0.04 0.02 0.00 0.00 0.00 0.00 0.00 0.00 0.00 0.00 0.00 0.00 0.00 0.00 0.01 0.02 0.06 0.07 0.02 0.01
0.01 0.01 0.01 0.02 0.03 0.05 0.10 0.16 0.23 0.28 0.28 0.24 0.19 0.17 0.17 0.19 0.18 0.13 0.08 0.06 0.06 0.05 0.06 0.06 0.04 0.01 0.00 0.00 0.00 0.00 0.00 0.00 0.00 0.00 0.00 0.00 0.00 0.00 0.00 0.03 0.04 0.02 0.01
0.01 0.01 0.02 0.04 0.07 0.10 0.13 0.19 0.26 0.30 0.30 0.25 0.18 0.14 0.13 0.14 0.16 0.14 0.10 0.06 0.05 0.04 0.04 0.05 0.05 0.02 0.00 0.00 0.00 0.00 0.00 0.01 0.00 0.00 0.00 0.00 0.00 0.00 0.00 0.00 0.01 0.01 0.00
0.01 0.01 0.04 0.06 0.08 0.08 0.11 0.17 0.24 0.27 0.23 0.17 0.13 0.11 0.12 0.12 0.13 0.14 0.14 0.13 0.11 0.07 0.05 0.05 0.05 0.04 0.01 0.00 0.00 0.00 0.00 0.00 0.00 0.00 0.00 0.00 0.00 0.00 0.00 0.00 0.00 0.00 0.00
0.00 0.02 0.07 0.10 0.08 0.07 0.10 0.13 0.15 0.17 0.15 0.11 0.10 0.09 0.10 0.10 0.12 0.23 0.26 0.26 0.20 0.12 0.09 0.08 0.07 0.06 0.05 0.01 0.00 0.00 0.00 0.00 0.00 0.00 0.00 0.00 0.00 0.00 0.00 0.00 0.00 0.00 0.00
0.01 0.03 0.06 0.08 0.11 0.13 0.12 0.12 0.10 0.08 0.09 0.12 0.14 0.11 0.09 0.10 0.11 0.17 0.21 0.20 0.14 0.09 0.07 0.08 0.08 0.08 0.08 0.04 0.00 0.00 0.00 0.00 0.01 0.00 0.00 0.00 0.00 0.00 0.00 0.00 0.00 0.00 0.00
0.02 0.04 0.08 0.12 0.16 0.19 0.16 0.10 0.07 0.06 0.08 0.15 0.20 0.20 0.16 0.13 0.09 0.10 0.11 0.11 0.09 0.06 0.06 0.07 0.07 0.07 0.06 0.04 0.02 0.01 0.00 0.00 0.00 0.00 0.00 0.00 0.00 0.00 0.00 0.00 0.00 0.00 0.00
0.01 0.04 0.09 0.13 0.13 0.15 0.15 0.10 0.07 0.07 0.10 0.12 0.13 0.14 0.16 0.21 0.18 0.14 0.14 0.14 0.13 0.10 0.11 0.12 0.10 0.08 0.06 0.03 0.02 0.01 0.01 0.01 0.00 0.00 0.01 0.01 0.01 0.01 0.00 0.00 0.00 0.00 0.00
0.00 0.01 0.05 0.07 0.08 0.09 0.09 0.07 0.08 0.10 0.14 0.16 0.15 0.16 0.17 0.17 0.17 0.15 0.12 0.11 0.12 0.11 0.12 0.13 0.11 0.10 0.07 0.04 0.03 0.01 0.01 0.01 0.01 0.00 0.01 0.01 0.01 0.00 0.00 0.00 0.00 0.00 0.00

GEFSMW_prec_meanprecacc_036.txt.gz
Total_Precipitation_Accumulation
0.88 0.91 0.89 0.72 0.70 0.67 0.62 0.59 0.61 0.65 0.70 0.85 0.95 0.98 0.92 0.85 0.72 0.62 0.58 0.59 0.57 0.65 0.79 0.72 0.79 0.69 0.71 0.71 0.63 0.77 0.78 0.65 0.57 0.40 0.22 0.08 0.04 0.06 0.10 0.15 0.16 0.11 0.07
0.70 0.73 0.69 0.63 0.66 0.82 0.91 0.87 0.81 0.82 0.85 1.11 1.46 1.65 1.71 1.51 1.17 0.96 0.86 0.77 0.72 0.75 0.78 0.81 0.72 0.69 0.71 0.73 0.74 0.81 0.70 0.57 0.55 0.53 0.44 0.22 0.13 0.12 0.18 0.30 0.31 0.21 0.11
0.38 0.45 0.48 0.54 0.60 0.70 0.71 0.66 0.65 0.72 0.78 0.95 1.23 1.44 1.70 1.70 1.45 1.17 1.04 0.95 0.86 0.77 0.76 0.76 0.71 0.71 0.72 0.80 0.88 0.77 0.68 0.58 0.57 0.59 0.64 0.49 0.32 0.18 0.08 0.11 0.18 0.22 0.19
0.35 0.43 0.46 0.47 0.48 0.50 0.50 0.52 0.60 0.71 0.83 0.97 1.16 1.41 1.67 1.66 1.57 1.46 1.26 1.07 0.90 0.76 0.71 0.68 0.66 0.68 0.70 0.81 0.77 0.75 0.83 0.80 0.73 0.74 0.75 0.70 0.60 0.47 0.18 0.07 0.13 0.21 0.24
0.33 0.38 0.43 0.46 0.47 0.50 0.55 0.60 0.69 0.81 0.92 1.02 1.11 1.27 1.63 1.63 1.46 1.31 1.15 1.02 0.88 0.79 0.74 0.69 0.66 0.64 0.66 0.74 0.75 0.87 0.87 0.88 0.86 0.81 0.77 0.79 0.77 0.70 0.52 0.24 0.18 0.20 0.20
0.36 0.42 0.48 0.51 0.48 0.51 0.57 0.61 0.64 0.71 0.78 0.83 0.90 0.94 1.10 1.18 1.11 1.04 0.95 0.86 0.77 0.72 0.71 0.67 0.62 0.61 0.64 0.73 0.74 0.74 0.74 0.76 0.80 0.74 0.68 0.72 0.71 0.71 0.72 0.53 0.41 0.34 0.29
0.37 0.40 0.45 0.48 0.51 0.52 0.53 0.53 0.53 0.55 0.54 0.53 0.53 0.55 0.65 0.79 0.83 0.82 0.81 0.77 0.69 0.61 0.58 0.59 0.58 0.58 0.62 0.70 0.70 0.65 0.65 0.67 0.68 0.63 0.63 0.65 0.65 0.69 0.79 0.84 0.73 0.60 0.43
0.31 0.30 0.33 0.37 0.41 0.44 0.47 0.47 0.46 0.47 0.48 0.48 0.49 0.46 0.49 0.61 0.72 0.76 0.75 0.70 0.61 0.50 0.45 0.46 0.50 0.52 0.54 0.58 0.67 0.68 0.68 0.64 0.62 0.58 0.68 0.67 0.62 0.60 0.69 0.84 0.92 0.87 0.68
0.31 0.28 0.28 0.29 0.30 0.31 0.33 0.37 0.41 0.47 0.51 0.53 0.52 0.47 0.50 0.61 0.67 0.71 0.75 0.78 0.74 0.66 0.57 0.53 0.53 0.54 0.56 0.62 0.70 0.78 0.76 0.74 0.72 0.75 0.77 0.69 0.60 0.56 0.64 0.83 0.94 0.98 0.83
0.31 0.26 0.22 0.20 0.19 0.22 0.28 0.40 0.52 0.56 0.50 0.47 0.44 0.41 0.49 0.65 0.67 0.61 0.60 0.68 0.72 0.70 0.64 0.60 0.58 0.58 0.59 0.60 0.63 0.74 0.78 0.79 0.85 0.85 0.83 0.81 0.76 0.74 0.76 0.85 0.94 0.98 0.93
0.30 0.26 0.20 0.17 0.17 0.20 0.25 0.36 0.43 0.50 0.48 0.42 0.37 0.35 0.37 0.44 0.50 0.51 0.50 0.53 0.57 0.60 0.57 0.51 0.46 0.43 0.39 0.38 0.40 0.46 0.51 0.55 0.60 0.59 0.64 0.74 0.81 0.81 0.81 0.82 0.82 0.89 0.93
0.21 0.19 0.18 0.18 0.19 0.22 0.26 0.31 0.34 0.36 0.39 0.38 0.36 0.36 0.35 0.33 0.31 0.33 0.35 0.36 0.37 0.37 0.34 0.29 0.25 0.22 0.20 0.19 0.21 0.22 0.27 0.33 0.37 0.41 0.46 0.50 0.54 0.59 0.64 0.67 0.69 0.76 0.87
0.22 0.21 0.20 0.20 0.22 0.26 0.30 0.33 0.38 0.38 0.40 0.38 0.37 0.40 0.38 0.35 0.28 0.25 0.24 0.23 0.21 0.19 0.17 0.16 0.14 0.12 0.10 0.10 0.12 0.14 0.16 0.19 0.22 0.23 0.23 0.21 0.25 0.31 0.36 0.43 0.50 0.58 0.80
0.18 0.19 0.21 0.22 0.23 0.26 0.27 0.28 0.33 0.38 0.43 0.47 0.54 0.53 0.47 0.41 0.33 0.26 0.22 0.18 0.15 0.13 0.12 0.12 0.12 0.11 0.11 0.12 0.13 0.14 0.14 0.14 0.13 0.11 0.09 0.08 0.11 0.17 0.24 0.32 0.36 0.41 0.53
0.19 0.19 0.22 0.24 0.25 0.25 0.26 0.26 0.28 0.33 0.36 0.41 0.51 0.55 0.49 0.42 0.35 0.27 0.20 0.17 0.14 0.10 0.10 0.12 0.12 0.12 0.12 0.11 0.12 0.15 0.14 0.14 0.13 0.10 0.06 0.06 0.08 0.09 0.10 0.16 0.23 0.29 0.43
0.19 0.17 0.17 0.17 0.20 0.20 0.19 0.20 0.22 0.23 0.26 0.29 0.35 0.41 0.41 0.37 0.31 0.24 0.15 0.11 0.08 0.07 0.07 0.08 0.08 0.06 0.04 0.03 0.03 0.07 0.08 0.08 0.08 0.07 0.05 0.03 0.05 0.09 0.12 0.14 0.15 0.15 0.23
0.11 0.10 0.11 0.11 0.10 0.09 0.10 0.15 0.17 0.19 0.25 0.27 0.28 0.33 0.38 0.36 0.27 0.16 0.12 0.09 0.07 0.07 0.08 0.06 0.04 0.02 0.01 0.01 0.01 0.01 0.03 0.03 0.02 0.02 0.02 0.01 0.03 0.07 0.10 0.10 0.08 0.08 0.09
0.03 0.03 0.03 0.04 0.04 0.04 0.08 0.13 0.17 0.23 0.28 0.30 0.31 0.33 0.34 0.33 0.27 0.19 0.15 0.13 0.12 0.11 0.11 0.08 0.04 0.00 0.00 0.00 0.00 0.00 0.01 0.01 0.00 0.00 0.00 0.00 0.00 0.01 0.02 0.06 0.07 0.02 0.01
0.01 0.01 0.01 0.02 0.03 0.06 0.11 0.18 0.26 0.32 0.33 0.33 0.31 0.30 0.33 0.36 0.35 0.28 0.19 0.14 0.13 0.12 0.12 0.10 0.06 0.01 0.00 0.00 0.00 0.00 0.01 0.01 0.00 0.00 0.00 0.00 0.00 0.00 0.00 0.03 0.04 0.02 0.01
0.01 0.01 0.02 0.04 0.07 0.10 0.13 0.20 0.29 0.34 0.36 0.33 0.28 0.26 0.27 0.30 0.35 0.33 0.23 0.16 0.14 0.11 0.08 0.08 0.07 0.03 0.01 0.00 0.00 0.00 0.01 0.01 0.00 0.00 0.00 0.00 0.00 0.00 0.00 0.00 0.01 0.01 0.01
0.01 0.02 0.04 0.07 0.08 0.09 0.12 0.18 0.26 0.31 0.29 0.24 0.23 0.25 0.27 0.29 0.32 0.33 0.27 0.22 0.18 0.14 0.11 0.09 0.08 0.07 0.02 0.00 0.00 0.00 0.01 0.01 0.00 0.00 0.00 0.00 0.00 0.00 0.00 0.00 0.00 0.00 0.00
0.01 0.03 0.07 0.10 0.09 0.07 0.10 0.13 0.17 0.20 0.20 0.19 0.21 0.23 0.26 0.22 0.26 0.36 0.37 0.37 0.30 0.18 0.15 0.13 0.12 0.09 0.05 0.01 0.00 0.00 0.00 0.00 0.01 0.00 0.00 0.00 0.00 0.00 0.00 0.00 0.00 0.00 0.00
0.03 0.05 0.08 0.10 0.12 0.14 0.13 0.12 0.11 0.11 0.13 0.18 0.25 0.24 0.23 0.24 0.27 0.29 0.30 0.28 0.22 0.15 0.12 0.11 0.11 0.10 0.08 0.04 0.00 0.00 0.00 0.00 0.01 0.00 0.00 0.00 0.00 0.00 0.00 0.00 0.00 0.00 0.00
0.05 0.08 0.12 0.17 0.21 0.23 0.18 0.11 0.07 0.08 0.12 0.22 0.31 0.33 0.30 0.27 0.23 0.23 0.22 0.20 0.16 0.11 0.11 0.10 0.09 0.08 0.07 0.04 0.02 0.01 0.00 0.00 0.00 0.00 0.00 0.00 0.00 0.00 0.00 0.00 0.00 0.00 0.00
0.07 0.10 0.16 0.21 0.22 0.25 0.23 0.13 0.08 0.09 0.14 0.19 0.23 0.26 0.30 0.34 0.32 0.26 0.26 0.27 0.24 0.16 0.16 0.16 0.13 0.11 0.08 0.03 0.02 0.01 0.01 0.01 0.00 0.00 0.01 0.01 0.01 0.01 0.00 0.00 0.00 0.00 0.00
0.09 0.13 0.18 0.23 0.26 0.29 0.25 0.15 0.10 0.12 0.18 0.21 0.23 0.26 0.27 0.28 0.28 0.26 0.17 0.14 0.16 0.12 0.13 0.14 0.12 0.11 0.07 0.04 0.03 0.01 0.01 0.01 0.01 0.00 0.01 0.01 0.01 0.00 0.00 0.00 0.00 0.00 0.00

GEFSMW_prec_meanprecacc_042.txt.gz
Total_Precipitation_Accumulation
0.88 0.92 0.93 0.79 0.80 0.80 0.78 0.82 0.89 1.02 1.09 1.15 1.18 1.17 1.08 1.01 0.86 0.73 0.68 0.68 0.69 0.80 1.00 0.94 1.02 0.92 0.90 0.86 0.78 0.91 0.90 0.75 0.68 0.50 0.29 0.12 0.06 0.07 0.11 0.18 0.19 0.15 0.12
0.70 0.73 0.69 0.65 0.69 0.89 1.02 1.03 1.00 1.05 1.11 1.36 1.68 1.87 1.91 1.67 1.33 1.13 1.03 0.92 0.90 0.99 1.08 1.11 0.99 0.95 0.95 0.92 0.91 0.96 0.83 0.67 0.69 0.67 0.57 0.30 0.18 0.15 0.20 0.34 0.38 0.31 0.26
0.39 0.46 0.49 0.55 0.61 0.73 0.77 0.76 0.76 0.84 0.92 1.10 1.41 1.64 1.91 1.85 1.61 1.37 1.26 1.17 1.12 1.08 1.11 1.12 1.05 0.99 0.95 1.00 1.07 0.95 0.81 0.69 0.68 0.73 0.81 0.62 0.41 0.24 0.11 0.15 0.24 0.29 0.27
0.36 0.44 0.47 0.48 0.49 0.52 0.53 0.57 0.65 0.76 0.89 1.04 1.27 1.55 1.82 1.79 1.73 1.67 1.46 1.27 1.11 1.01 0.98 0.99 0.98 0.96 0.95 1.02 0.95 0.91 0.96 0.92 0.83 0.86 0.88 0.82 0.74 0.60 0.25 0.10 0.16 0.24 0.28
0.35 0.39 0.44 0.46 0.47 0.50 0.56 0.62 0.70 0.83 0.95 1.06 1.17 1.34 1.72 1.73 1.58 1.46 1.31 1.19 1.06 0.98 0.95 0.93 0.89 0.85 0.85 0.90 0.90 1.02 0.99 1.00 0.96 0.91 0.88 0.92 0.92 0.85 0.63 0.29 0.22 0.22 0.23
0.37 0.43 0.48 0.51 0.48 0.51 0.57 0.61 0.64 0.71 0.78 0.84 0.92 0.98 1.16 1.24 1.17 1.11 1.05 0.97 0.88 0.84 0.86 0.84 0.80 0.76 0.78 0.86 0.87 0.87 0.86 0.87 0.90 0.84 0.81 0.85 0.84 0.85 0.86 0.62 0.47 0.38 0.31
0.37 0.40 0.45 0.48 0.51 0.52 0.53 0.53 0.53 0.55 0.54 0.53 0.53 0.56 0.67 0.81 0.86 0.87 0.88 0.85 0.76 0.70 0.68 0.71 0.71 0.70 0.74 0.82 0.81 0.76 0.75 0.79 0.80 0.76 0.77 0.77 0.76 0.79 0.89 0.93 0.79 0.64 0.45
0.31 0.30 0.33 0.37 0.41 0.44 0.47 0.47 0.46 0.47 0.48 0.48 0.49 0.47 0.49 0.62 0.73 0.79 0.79 0.75 0.67 0.57 0.54 0.56 0.61 0.65 0.66 0.71 0.80 0.81 0.81 0.79 0.76 0.73 0.81 0.78 0.72 0.69 0.77 0.91 0.97 0.90 0.71
0.31 0.28 0.28 0.29 0.30 0.31 0.33 0.37 0.41 0.47 0.51 0.53 0.52 0.47 0.50 0.62 0.68 0.74 0.78 0.83 0.81 0.75 0.69 0.66 0.67 0.69 0.72 0.79 0.88 0.95 0.93 0.93 0.90 0.91 0.91 0.81 0.69 0.64 0.71 0.89 0.98 1.01 0.86
0.31 0.26 0.22 0.20 0.19 0.22 0.28 0.40 0.52 0.56 0.50 0.47 0.44 0.41 0.49 0.65 0.68 0.63 0.64 0.73 0.79 0.79 0.77 0.75 0.73 0.74 0.76 0.82 0.87 0.97 1.00 1.02 1.07 1.04 1.00 0.95 0.86 0.82 0.82 0.90 0.98 1.02 0.95
0.30 0.26 0.21 0.17 0.17 0.20 0.25 0.36 0.43 0.50 0.48 0.42 0.38 0.35 0.38 0.45 0.51 0.53 0.54 0.59 0.64 0.69 0.67 0.64 0.60 0.60 0.61 0.63 0.66 0.72 0.75 0.79 0.82 0.81 0.84 0.88 0.90 0.88 0.87 0.86 0.85 0.92 0.94
0.21 0.19 0.18 0.18 0.19 0.22 0.26 0.31 0.34 0.36 0.39 0.38 0.36 0.36 0.36 0.34 0.32 0.35 0.39 0.42 0.46 0.49 0.45 0.41 0.39 0.39 0.40 0.40 0.42 0.47 0.55 0.58 0.60 0.61 0.63 0.61 0.61 0.63 0.67 0.69 0.70 0.76 0.87
0.22 0.21 0.20 0.20 0.22 0.26 0.30 0.33 0.38 0.38 0.40 0.39 0.37 0.40 0.39 0.35 0.29 0.28 0.28 0.29 0.28 0.26 0.25 0.27 0.25 0.22 0.24 0.26 0.30 0.36 0.42 0.44 0.43 0.42 0.38 0.30 0.30 0.34 0.38 0.44 0.51 0.58 0.80
0.18 0.19 0.21 0.22 0.23 0.26 0.27 0.28 0.33 0.38 0.43 0.47 0.54 0.54 0.48 0.43 0.35 0.27 0.24 0.21 0.19 0.16 0.17 0.21 0.22 0.20 0.22 0.28 0.35 0.39 0.37 0.35 0.30 0.21 0.16 0.12 0.13 0.18 0.25 0.33 0.36 0.41 0.53
0.19 0.19 0.22 0.24 0.25 0.25 0.26 0.26 0.28 0.33 0.36 0.41 0.52 0.56 0.51 0.44 0.36 0.28 0.21 0.19 0.16 0.13 0.13 0.18 0.21 0.23 0.24 0.27 0.31 0.32 0.27 0.24 0.20 0.13 0.07 0.06 0.08 0.09 0.10 0.16 0.23 0.29 0.43
0.19 0.17 0.17 0.17 0.20 0.20 0.19 0.20 0.22 0.23 0.26 0.30 0.35 0.42 0.42 0.38 0.32 0.25 0.17 0.13 0.11 0.10 0.11 0.13 0.14 0.12 0.12 0.14 0.16 0.20 0.18 0.13 0.10 0.08 0.06 0.04 0.05 0.09 0.12 0.14 0.15 0.15 0.23
0.11 0.10 0.11 0.11 0.10 0.09 0.10 0.15 0.18 0.19 0.25 0.28 0.29 0.34 0.39 0.37 0.27 0.17 0.13 0.11 0.09 0.09 0.11 0.10 0.07 0.04 0.05 0.06 0.05 0.08 0.09 0.07 0.04 0.03 0.03 0.02 0.03 0.07 0.10 0.10 0.08 0.08 0.09
0.03 0.03 0.03 0.04 0.04 0.04 0.08 0.13 0.17 0.24 0.28 0.31 0.33 0.35 0.35 0.34 0.28 0.20 0.16 0.16 0.13 0.12 0.13 0.10 0.05 0.02 0.02 0.02 0.02 0.03 0.04 0.02 0.01 0.01 0.01 0.00 0.00 0.01 0.02 0.06 0.07 0.02 0.01
0.01 0.01 0.02 0.03 0.03 0.06 0.11 0.18 0.26 0.33 0.35 0.34 0.33 0.32 0.35 0.39 0.37 0.29 0.20 0.15 0.14 0.12 0.13 0.11 0.06 0.02 0.01 0.01 0.01 0.01 0.02 0.01 0.00 0.00 0.00 0.00 0.00 0.00 0.00 0.03 0.04 0.02 0.01
0.01 0.01 0.03 0.05 0.08 0.11 0.15 0.22 0.31 0.37 0.39 0.36 0.31 0.30 0.30 0.33 0.37 0.35 0.25 0.17 0.15 0.11 0.09 0.08 0.07 0.04 0.01 0.00 0.00 0.00 0.01 0.01 0.00 0.00 0.00 0.00 0.00 0.00 0.00 0.00 0.01 0.01 0.01
0.01 0.02 0.06 0.08 0.10 0.11 0.15 0.23 0.31 0.36 0.34 0.30 0.30 0.32 0.32 0.33 0.35 0.36 0.30 0.23 0.19 0.15 0.11 0.09 0.08 0.07 0.02 0.00 0.00 0.00 0.01 0.01 0.00 0.00 0.00 0.00 0.00 0.00 0.00 0.00 0.00 0.00 0.00
0.02 0.04 0.09 0.13 0.12 0.11 0.16 0.21 0.26 0.29 0.30 0.30 0.32 0.33 0.35 0.29 0.30 0.39 0.40 0.39 0.32 0.19 0.16 0.13 0.12 0.09 0.05 0.01 0.00 0.00 0.00 0.00 0.01 0.00 0.00 0.00 0.00 0.00 0.00 0.00 0.00 0.00 0.00
0.03 0.06 0.10 0.13 0.17 0.21 0.24 0.26 0.26 0.27 0.31 0.36 0.39 0.36 0.33 0.32 0.34 0.34 0.33 0.30 0.23 0.16 0.12 0.11 0.11 0.10 0.09 0.04 0.00 0.00 0.00 0.00 0.01 0.00 0.00 0.00 0.00 0.00 0.00 0.00 0.00 0.00 0.00
0.06 0.09 0.15 0.22 0.29 0.36 0.37 0.33 0.31 0.33 0.37 0.44 0.49 0.46 0.41 0.37 0.32 0.31 0.27 0.23 0.17 0.12 0.12 0.10 0.10 0.08 0.07 0.04 0.02 0.01 0.00 0.00 0.00 0.00 0.00 0.00 0.00 0.00 0.00 0.00 0.00 0.00 0.00
0.07 0.11 0.19 0.26 0.30 0.37 0.46 0.45 0.46 0.49 0.52 0.49 0.46 0.44 0.44 0.46 0.42 0.35 0.32 0.30 0.25 0.17 0.17 0.17 0.14 0.11 0.08 0.03 0.02 0.01 0.01 0.01 0.00 0.00 0.01 0.01 0.01 0.01 0.00 0.00 0.00 0.00 0.00
0.09 0.13 0.19 0.26 0.32 0.40 0.46 0.48 0.51 0.56 0.61 0.58 0.51 0.47 0.44 0.42 0.39 0.35 0.24 0.18 0.18 0.14 0.13 0.14 0.13 0.11 0.07 0.04 0.03 0.01 0.01 0.01 0.01 0.00 0.01 0.01 0.01 0.00 0.00 0.00 0.00 0.00 0.00

GEFSMW_prec_meanprecacc_048.txt.gz
Total_Precipitation_Accumulation
0.88 0.94 0.95 0.82 0.83 0.84 0.83 0.88 0.98 1.13 1.25 1.36 1.41 1.39 1.25 1.16 0.99 0.89 0.83 0.83 0.85 0.99 1.24 1.17 1.29 1.27 1.27 1.25 1.21 1.35 1.29 1.06 0.99 0.73 0.41 0.19 0.11 0.10 0.14 0.20 0.21 0.17 0.15
0.71 0.75 0.71 0.67 0.71 0.91 1.04 1.07 1.06 1.16 1.24 1.50 1.82 2.00 2.03 1.76 1.40 1.25 1.18 1.08 1.07 1.15 1.25 1.30 1.22 1.24 1.29 1.29 1.30 1.37 1.19 0.97 0.99 0.93 0.74 0.38 0.22 0.18 0.22 0.36 0.40 0.33 0.28
0.40 0.47 0.51 0.56 0.62 0.74 0.79 0.78 0.81 0.91 0.98 1.15 1.46 1.70 1.97 1.89 1.66 1.45 1.36 1.28 1.25 1.23 1.28 1.31 1.28 1.27 1.28 1.29 1.37 1.32 1.18 1.01 0.97 1.00 1.04 0.77 0.49 0.29 0.15 0.18 0.27 0.33 0.31
0.38 0.46 0.49 0.50 0.50 0.53 0.53 0.57 0.66 0.77 0.90 1.06 1.29 1.58 1.84 1.81 1.75 1.70 1.50 1.32 1.19 1.10 1.09 1.12 1.13 1.17 1.19 1.25 1.20 1.17 1.22 1.18 1.09 1.11 1.11 1.01 0.87 0.68 0.30 0.15 0.20 0.29 0.32
0.37 0.41 0.45 0.47 0.47 0.51 0.56 0.62 0.70 0.83 0.95 1.06 1.18 1.35 1.72 1.73 1.59 1.47 1.32 1.21 1.10 1.03 1.01 1.01 0.99 0.97 0.99 1.06 1.08 1.21 1.19 1.19 1.14 1.09 1.06 1.09 1.06 0.95 0.69 0.33 0.26 0.26 0.27
0.38 0.44 0.49 0.51 0.48 0.51 0.57 0.61 0.64 0.71 0.79 0.84 0.92 0.98 1.16 1.24 1.17 1.12 1.06 0.97 0.89 0.86 0.89 0.90 0.86 0.85 0.89 0.98 0.99 1.01 1.00 1.00 1.02 0.97 0.92 0.96 0.94 0.92 0.93 0.68 0.52 0.43 0.35
0.38 0.41 0.46 0.49 0.51 0.52 0.53 0.53 0.53 0.55 0.54 0.53 0.53 0.56 0.67 0.81 0.86 0.87 0.88 0.85 0.76 0.70 0.70 0.74 0.75 0.75 0.79 0.89 0.88 0.84 0.82 0.86 0.88 0.86 0.89 0.91 0.88 0.89 0.97 0.99 0.86 0.69 0.49
0.31 0.31 0.33 0.37 0.41 0.44 0.47 0.47 0.46 0.47 0.48 0.48 0.49 0.47 0.49 0.62 0.73 0.79 0.79 0.75 0.67 0.58 0.56 0.59 0.64 0.69 0.71 0.77 0.87 0.87 0.86 0.84 0.84 0.82 0.91 0.89 0.83 0.81 0.88 1.00 1.04 0.95 0.74
0.31 0.28 0.28 0.29 0.30 0.31 0.33 0.37 0.41 0.47 0.51 0.53 0.53 0.47 0.50 0.62 0.68 0.74 0.78 0.83 0.82 0.76 0.70 0.68 0.69 0.71 0.75 0.83 0.92 1.00 0.98 0.99 0.99 1.01 1.02 0.91 0.79 0.73 0.81 0.97 1.05 1.06 0.89
0.31 0.27 0.22 0.20 0.19 0.22 0.28 0.40 0.52 0.56 0.50 0.47 0.44 0.41 0.49 0.65 0.68 0.63 0.64 0.73 0.79 0.80 0.79 0.77 0.75 0.76 0.79 0.85 0.91 1.03 1.07 1.11 1.16 1.15 1.11 1.07 0.97 0.93 0.93 0.99 1.06 1.07 1.00
0.30 0.26 0.21 0.17 0.17 0.20 0.25 0.36 0.43 0.50 0.48 0.42 0.38 0.35 0.38 0.45 0.51 0.53 0.54 0.59 0.65 0.70 0.68 0.65 0.62 0.62 0.64 0.67 0.71 0.78 0.83 0.89 0.94 0.94 0.99 1.04 1.04 1.00 0.99 0.97 0.94 0.99 0.99
0.21 0.19 0.18 0.18 0.19 0.22 0.26 0.31 0.34 0.36 0.39 0.38 0.36 0.37 0.36 0.34 0.32 0.35 0.39 0.42 0.46 0.49 0.46 0.43 0.42 0.42 0.44 0.44 0.47 0.54 0.65 0.71 0.74 0.76 0.78 0.76 0.75 0.76 0.79 0.80 0.79 0.83 0.92
0.22 0.21 0.20 0.20 0.22 0.26 0.30 0.33 0.38 0.38 0.40 0.39 0.38 0.40 0.39 0.36 0.29 0.28 0.29 0.29 0.28 0.26 0.26 0.29 0.29 0.26 0.28 0.32 0.37 0.44 0.54 0.59 0.60 0.58 0.52 0.45 0.44 0.46 0.49 0.53 0.58 0.64 0.83
0.18 0.19 0.21 0.22 0.23 0.26 0.27 0.28 0.33 0.38 0.43 0.47 0.54 0.54 0.48 0.43 0.35 0.28 0.24 0.21 0.19 0.17 0.18 0.22 0.24 0.24 0.27 0.34 0.43 0.51 0.51 0.51 0.47 0.39 0.32 0.26 0.27 0.30 0.34 0.40 0.42 0.45 0.55
0.19 0.19 0.22 0.24 0.25 0.25 0.26 0.26 0.28 0.33 0.36 0.42 0.52 0.56 0.51 0.44 0.37 0.29 0.22 0.19 0.17 0.14 0.14 0.19 0.23 0.27 0.31 0.34 0.38 0.41 0.40 0.39 0.34 0.27 0.18 0.15 0.17 0.17 0.17 0.22 0.27 0.31 0.44
0.19 0.17 0.17 0.17 0.20 0.20 0.19 0.20 0.22 0.24 0.26 0.30 0.36 0.43 0.43 0.39 0.33 0.26 0.19 0.14 0.11 0.11 0.12 0.14 0.16 0.15 0.17 0.21 0.24 0.29 0.27 0.22 0.20 0.17 0.12 0.09 0.11 0.15 0.17 0.19 0.18 0.17 0.23
0.11 0.10 0.11 0.11 0.10 0.09 0.11 0.15 0.18 0.20 0.26 0.28 0.30 0.35 0.41 0.39 0.30 0.20 0.16 0.13 0.10 0.10 0.12 0.12 0.09 0.07 0.09 0.11 0.11 0.14 0.17 0.14 0.09 0.07 0.06 0.05 0.05 0.09 0.11 0.11 0.09 0.09 0.09
0.04 0.03 0.03 0.04 0.04 0.04 0.08 0.13 0.17 0.24 0.29 0.32 0.35 0.38 0.39 0.39 0.33 0.24 0.20 0.19 0.16 0.14 0.14 0.13 0.08 0.05 0.07 0.06 0.07 0.09 0.10 0.09 0.06 0.02 0.02 0.02 0.02 0.02 0.02 0.07 0.07 0.03 0.01
0.01 0.01 0.02 0.03 0.03 0.06 0.11 0.18 0.26 0.34 0.36 0.36 0.35 0.37 0.40 0.45 0.43 0.34 0.25 0.20 0.19 0.16 0.15 0.13 0.09 0.06 0.05 0.04 0.04 0.05 0.07 0.05 0.03 0.01 0.00 0.01 0.01 0.01 0.01 0.03 0.04 0.02 0.01
0.01 0.01 0.03 0.05 0.08 0.11 0.15 0.22 0.31 0.38 0.40 0.38 0.35 0.35 0.37 0.41 0.47 0.45 0.34 0.25 0.22 0.17 0.13 0.11 0.09 0.06 0.03 0.02 0.02 0.03 0.04 0.03 0.01 0.00 0.00 0.00 0.00 0.00 0.00 0.01 0.01 0.01 0.01
0.01 0.02 0.06 0.08 0.10 0.11 0.15 0.23 0.31 0.37 0.36 0.33 0.34 0.38 0.41 0.45 0.49 0.51 0.45 0.37 0.29 0.22 0.17 0.12 0.11 0.08 0.02 0.01 0.01 0.01 0.01 0.01 0.01 0.00 0.00 0.00 0.00 0.00 0.00 0.00 0.00 0.00 0.00
0.02 0.04 0.09 0.13 0.12 0.11 0.16 0.22 0.26 0.30 0.32 0.33 0.37 0.41 0.47 0.45 0.49 0.61 0.61 0.59 0.47 0.29 0.22 0.17 0.14 0.10 0.05 0.01 0.01 0.01 0.01 0.01 0.01 0.00 0.00 0.00 0.00 0.00 0.00 0.00 0.00 0.00 0.00
0.03 0.06 0.10 0.13 0.17 0.21 0.24 0.27 0.26 0.28 0.33 0.39 0.44 0.44 0.45 0.48 0.55 0.59 0.60 0.56 0.45 0.31 0.22 0.16 0.13 0.11 0.09 0.04 0.00 0.01 0.00 0.00 0.01 0.00 0.00 0.00 0.00 0.00 0.00 0.00 0.00 0.00 0.00
0.06 0.09 0.15 0.22 0.29 0.36 0.37 0.33 0.32 0.34 0.39 0.47 0.55 0.56 0.54 0.53 0.53 0.56 0.57 0.52 0.39 0.28 0.23 0.17 0.12 0.09 0.07 0.04 0.02 0.01 0.00 0.00 0.00 0.00 0.00 0.00 0.00 0.00 0.00 0.00 0.00 0.00 0.00
0.07 0.11 0.19 0.26 0.30 0.37 0.46 0.45 0.47 0.51 0.55 0.54 0.53 0.55 0.59 0.65 0.66 0.63 0.62 0.58 0.46 0.32 0.28 0.23 0.17 0.12 0.08 0.03 0.02 0.01 0.01 0.01 0.00 0.00 0.01 0.01 0.01 0.01 0.00 0.00 0.00 0.00 0.00
0.09 0.14 0.19 0.26 0.32 0.40 0.47 0.48 0.52 0.58 0.64 0.62 0.57 0.58 0.61 0.63 0.65 0.65 0.57 0.50 0.42 0.32 0.28 0.24 0.17 0.12 0.08 0.04 0.03 0.01 0.01 0.01 0.01 0.00 0.01 0.01 0.01 0.00 0.00 0.00 0.00 0.00 0.00